This demonstration page uses our WeatherBlox Daily Observations layout. Learn more.

Hourly Observations for January 24, 2021

Temp ( °F °C ) Dew Point ( °F °C ) Humidity (%) Winds ( mph kmh ) Pressure ( in mb ) Visibility ( mi km ) Precip ( " mm )
12:51 am 00:51 Clear 48 8.9 30 -1.1 50 50 Calm 29.74 1007 10 16.0934 0 0
1:51 am 01:51 Mostly Cloudy 49 9.4 31 -0.6 50 50 Calm 29.73 1007 10 16.0934 0 0
2:51 am 02:51 Partly Cloudy 46 7.8 33 0.6 61 61 ENE 6 9 29.74 1007 10 16.0934 0 0
3:51 am 03:51 Mostly Cloudy 45 7.2 34 1.1 66 66 Calm 29.73 1007 10 16.0934 0 0
4:51 am 04:51 Partly Cloudy 44 6.7 33 0.6 65 65 VRB 3 6 29.72 1007 10 16.0934 0 0
5:51 am 05:51 Mostly Cloudy 44 6.7 34 1.1 68 68 VRB 5 7 29.74 1007 10 16.0934 0 0
6:51 am 06:51 Mostly Clear 42 5.6 36 2.2 79 79 SE 6 9 29.75 1008 10 16.0934 0 0
7:51 am 07:51 Sunny 43 6.1 35 1.7 74 74 ESE 8 13 29.75 1008 10 16.0934 0 0
8:51 am 08:51 Mostly Sunny 47 8.3 37 2.8 69 69 Calm 29.75 1007 10 16.0934 0 0
9:51 am 09:51 Mostly Sunny 50 10 39 3.9 66 66 Calm 29.75 1007 10 16.0934 0.001 0.001
10:51 am 10:51 Mostly Sunny 53 11.7 38 3.3 57 57 SSE 3 6 29.73 1007 10 16.0934 0 0
11:40 am 11:40 Cloudy 50 10 39 3.9 66 66 NW 25 41 29.77 1008 10 16.0934 0 0
11:51 am 11:51 Cloudy 49 9.4 38 3.3 66 66 NW 24 39 29.73 1007 10 16.0934 0 0
12:51 pm 12:51 Sunny 51 10.6 37 2.8 59 59 NNW 23 37 29.7 1006 10 16.0934 0 0
1:51 pm 13:51 Mostly Cloudy 53 11.7 38 3.3 57 57 NW 16 26 29.7 1006 10 16.0934 0.001 0.001
2:51 pm 14:51 Mostly Sunny 50 10 34 1.1 54 54 NNW 18 30 29.72 1006 10 16.0934 0.001 0.001
3:51 pm 15:51 Mostly Cloudy 47 8.3 33 0.6 59 59 WNW 21 33 29.74 1007 10 16.0934 0 0
4:51 pm 16:51 Sunny 46 7.8 32 0 58 58 NW 20 31 29.76 1008 10 16.0934 0 0
5:51 pm 17:51 Cloudy 45 7.2 33 0.6 63 63 NW 13 20 29.79 1009 10 16.0934 0 0
6:51 pm 18:51 Cloudy 44 6.7 33 0.6 65 65 NW 8 13 29.82 1010 10 16.0934 0 0
7:51 pm 19:51 Mostly Cloudy 41 5 35 1.7 79 79 SSE 7 11 29.84 1011 10 16.0934 0 0
8:51 pm 20:51 Mostly Cloudy 40 4.4 35 1.7 83 83 S 3 6 29.85 1011 10 16.0934 0 0
9:51 pm 21:51 Cloudy 40 4.4 33 0.6 77 77 SW 7 11 29.87 1012 10 16.0934 0 0
10:51 pm 22:51 Cloudy 39 3.9 34 1.1 82 82 E 3 6 29.86 1011 10 16.0934 0 0
11:51 pm 23:51 Mostly Clear 35 1.7 31 -0.6 85 85 Calm 29.88 1012 10 16.0934 0 0

Powered by AerisWeather